User: anonymous   Login
Location: Unspecified
(42.0334°N, 93.6656°W)
Time: 11:28:59
(UTC-05:00)
Language:

Iridium 63 - Orbit

View from above orbital plane
View from above orbital plane
View from above satellite
View from above satellite

Ground track
Ground track

The orbit data is extracted from the following two-line orbital elements,

1 25286U 98021B   16241.50099574  .00000089  00000-0  24625-4 0  9996
2 25286  86.4033 346.6593 0002107  86.5651   6.8735 14.34608020963089
Epoch (UTC): 28 August 2016 12:01:26
Eccentricity: 0.0002107
inclination: 86.4033°
perigee height: 775 km
apogee height: 778 km
right ascension of ascending node: 346.6593°
argument of perigee: 86.5651°
revolutions per day: 14.34608020
mean anomaly at epoch: 6.8735°
orbit number at epoch: 96308

The dashed part of the orbit path shows where the satellite is in the earth's shadow,  

DLR